Weather Roundup
Issued by NWS

Home | Current Version | Previous Version | Graphics & Text | Print | Product List | Glossary Off
Versions: 1 2 3 4 5 6 7 8 9 10 11 12 13 14 15 16 17 18 19 20 21 22 23 24 25 26 27 28 29 30 31 32 33 34 35 36 37 38 39 40 41 42 43 44 45 46 47 48 49 50

000
NZUS93 KARX 290210
HRRWXR

CURRENT HOURLY OBSERVATIONS ACROSS
MUCH OF THE UPPER MISSISSIPPI VALLEY
NATIONAL WEATHER SERVICE LA CROSSE WI
800 PM CST SUN DEC 28 2014


...SOUTHEAST MINNESOTA...


CITY           SKY/WX    TMP DP  RH WIND       PRES   REMARKS
ROCHESTER      PTCLDY    13  10  88 N6        30.23R WCI   4
ROCHESTER/MAYO FAIR      16  12  84 CALM      30.24R
WINONA         CLEAR     14  12  92 CALM      30.28R
AUSTIN         PTCLDY    12  10  92 CALM      30.23R
ALBERT LEA     PTCLDY    12  10  92 N5        30.23R WCI   4
DODGE CENTER   PTCLDY    12  12 100 NE5       30.23R FOG     WCI   4
PRESTON        FAIR      13  10  89 N7        30.23R WCI   3
OWATONNA       PTCLDY    12  10  92 E3        30.24R
FARIBAULT      PTCLDY    10   9  92 CALM      30.26R FOG
$$

...ELSEWHERE IN MINNESOTA...


CITY           SKY/WX    TMP DP  RH WIND       PRES   REMARKS
MINNEAPOLIS    PTCLDY    15   6  67 N8        30.29R WCI   4
INTNL FALLS    CLEAR     -6 -12  75 NW7       30.32R WCI -20
DULUTH         CLEAR      4  -6  63 NW8       30.24R WCI  -9
RED WING       PTCLDY     9   5  85 N3        30.28R
REDWOOD FALLS  CLOUDY    19  13  77 NE5       30.27R WCI  12
MANKATO        PTCLDY    14  10  85 N7        30.25R WCI   4
WORTHINGTON    CLOUDY    18 -27  12 NE13      30.23R WCI   4
FAIRMONT       CLOUDY    16  12  86 N8        30.23R VSB 1   WCI   5
$$

...SOUTHWEST WISCONSIN...


CITY           SKY/WX    TMP DP  RH WIND       PRES   REMARKS
LA CROSSE      CLEAR     18  13  80 N5        30.27R WCI  11
PRAIRIE DU CHI PTCLDY    26  20  77 NW6       30.24R WCI  20
BOSCOBEL       PTCLDY    21  17  84 CALM      30.24R
LONE ROCK      CLOUDY    32  19  58 W3        30.23R
PLATTEVILLE    PTCLDY    25  19  78 CALM      30.21R
FORT MC COY    CLEAR     18  15  86 CALM      30.27R
CAMP DOUGLAS   PTCLDY    20  18  92 N6        30.24R WCI  12
VIROQUA        FAIR      22  19  87 N9        30.20R WCI  12
WIS DELLS      CLOUDY    27  20  77 N9        30.20S WCI  17
$$

...ELSEWHERE IN WISCONSIN...


CITY           SKY/WX    TMP DP  RH WIND       PRES   REMARKS
MILWAUKEE      PTCLDY    27  18  69 N5        30.21R WCI  22
MADISON        CLOUDY    27  19  72 CALM      30.20R
GREEN BAY      CLOUDY    24  16  71 N7        30.24R WCI  16
EAU CLAIRE     CLEAR      9   4  80 N5        30.26R WCI   1
BLACK RVR FLS  FAIR       9   9  97 CALM      30.26R FOG
MEDFORD        PTCLDY   N/A N/A N/A N5        30.21S
WAUSAU         CLEAR     10   9  95 CALM      30.21R
WIS RAPIDS     CLEAR     17  11  77 N5        30.25R WCI  10
MARSHFIELD     PTCLDY     8   5  87 N7        30.22S WCI  -3
RICE LAKE      CLEAR      5  -1  78 N3        30.28S
$$

...NORTHEAST IOWA...


CITY           SKY/WX    TMP DP  RH WIND       PRES   REMARKS
DECORAH        MOCLDY    19  16  86 N7        30.21R WCI  10
MASON CITY     MOCLDY    12   9  87 N3        30.24R
CHARLES CITY   CLOUDY    18  16  93 NE7       30.22S WCI   8
OELWEIN        MOCLDY    25  21  86 N8        30.22R WCI  16
$$

...ELSEWHERE IN IOWA...


CITY           SKY/WX    TMP DP  RH WIND       PRES   REMARKS
DES MOINES     CLOUDY    31  22  69 NE6       30.18S WCI  25
IOWA CITY      PTCLDY    22  17  81 CALM      30.23R
FORT DODGE     CLOUDY    18  12  79 NE6       30.22R WCI   9
$$

...NORTHERN ILLINOIS...


CITY           SKY/WX    TMP DP  RH WIND       PRES   REMARKS
CHICAGO-OHARE  PTCLDY    27  18  69 W3        30.21R
CHICAGO-MIDWAY CLEAR     30  18  60 SW7       30.22R WCI  23
MOLINE         CLEAR     22  17  81 CALM      30.22R
ROCKFORD       CLEAR     25  17  72 CALM      30.23R
PEORIA         CLEAR     26  17  68 CALM      30.23R
$$

NOTE: "FAIR" INDICATES FEW OR NO CLOUDS BELOW 12,000 FEET WITH NO
SIGNIFICANT WEATHER AND/OR OBSTRUCTIONS TO VISIBILITY. WIND
SPEEDS ARE IN MILES-PER-HOUR.



USA.gov is the U.S. government's official web portal to all federal, state and local government web resources and services.